LUCH (OLYMP)

Last updated on May 21, 2019, 3:10 a.m. UTC

1 40258U 14058A   19140.68086875  .00000041  00000-0  00000+0 0  9994
2 40258   0.0111 132.3719 0001511 309.6978 101.0025  1.00269624 17029
UTC
Height (km)
Latitude
Longitude
Inclination
Orbital Period
UTC large
Height (km)
Speed (km/s)
/
Latitude / Longitude
Inclination (degrees)
Orbital Period (minutes)
Azimuth
Elevation
Range (km)
Doppler Factor
iOS Compass Heading
iOS Angle

Next 30 passes for location: Hong Kong

Rise time Rise Azimuth (degrees) Set time Set Azimuth (degrees) Duration Max altitude (degrees)

No matching passes for this satellites